Terminal Aerodrome Forecast
Issued by NWS

Home | Current Version | Previous Version | Text Only | Print | Product List | Glossary On
Versions: 1 2 3 4 5 6 7 8 9 10 11 12 13 14 15 16 17 18 19
522
FTUS43 KDVN 211720
TAFBRL
TAF
KBRL 211720Z 2118/2218 05005KT P6SM SCT200
     FM212000 09004KT P6SM SCT200
     FM220000 20004KT 6SM BR SKC
     FM221500 21009KT P6SM SKC=

USA.gov is the U.S. government's official web portal to all federal, state and local government web resources and services.